GW3825 Weather Reports


Display with metric or nautical units.
time (UTC)temp
F
wind
direction
speed
MPH
gust
MPH
rain 1hr
in
rain 24hr
in
rain mn
in
humidity
%
barometer
mb
20260504204355 79 258 19.0 24.0 0.00 0.00 0.00 46 1003.1
20260504203854 80 239 20.0 22.0 0.00 0.00 0.00 44 1003.1
20260504203350 79 239 21.0 25.0 0.00 0.00 0.00 45 1003.1
20260504202847 79 244 19.0 23.0 0.00 0.00 0.00 45 1003.3
20260504202344 79 245 19.0 22.0 0.00 0.00 0.00 47 1003.1
20260504201840 78 262 18.0 21.0 0.00 0.00 0.00 48 1003.0
20260504201338 79 224 18.0 24.0 0.00 0.00 0.00 47 1003.2
20260504200835 79 285 15.0 19.0 0.00 0.00 0.00 46 1003.2
20260504200331 80 241 16.0 18.0 0.00 0.00 0.00 48 1003.2
20260504195828 78 245 18.0 22.0 0.00 0.00 0.00 46 1003.4
20260504195323 79 242 14.0 21.0 0.00 0.00 0.00 47 1003.4
20260504194820 79 267 20.0 24.0 0.00 0.00 0.00 48 1003.3
20260504194316 78 248 16.0 21.0 0.00 0.00 0.00 47 1003.5
20260504193813 78 251 17.0 24.0 0.00 0.00 0.00 46 1003.4
20260504193310 78 242 20.0 23.0 0.00 0.00 0.00 46 1003.3
20260504192809 78 243 19.0 24.0 0.00 0.00 0.00 47 1003.3
20260504192306 78 248 21.0 24.0 0.00 0.00 0.00 46 1003.3
20260504191805 78 235 14.0 19.0 0.00 0.00 0.00 48 1003.6
20260504191302 78 235 16.0 19.0 0.00 0.00 0.00 47 1003.4
20260504190757 78 280 16.0 25.0 0.00 0.00 0.00 45 1003.5
20260504190253 78 263 17.0 26.0 0.00 0.00 0.00 47 1003.4
20260504185750 77 242 11.0 17.0 0.00 0.00 0.00 48 1003.4
20260504185247 78 250 17.0 23.0 0.00 0.00 0.00 47 1003.6
20260504184743 78 243 19.0 21.0 0.00 0.00 0.00 49 1003.4
20260504184239 77 230 17.0 22.0 0.00 0.00 0.00 49 1003.5
20260504183735 78 245 20.0 24.0 0.00 0.00 0.00 48 1003.4
20260504183232 77 271 18.0 21.0 0.00 0.00 0.00 49 1003.5
20260504182730 77 241 22.0 24.0 0.00 0.00 0.00 48 1003.5
20260504182227 78 231 20.0 22.0 0.00 0.00 0.00 48 1003.4
20260504181725 77 240 21.0 24.0 0.00 0.00 0.00 50 1003.5
20260504181222 76 244 17.0 24.0 0.00 0.00 0.00 51 1003.7
20260504180721 77 238 15.0 19.0 0.00 0.00 0.00 51 1003.9
20260504180219 77 266 16.0 24.0 0.00 0.00 0.00 49 1003.6
20260504175716 76 249 17.0 24.0 0.00 0.00 0.00 49 1003.9
20260504175213 76 252 17.0 23.0 0.00 0.00 0.00 48 1004.1
20260504174711 76 246 13.0 16.0 0.00 0.00 0.00 51 1003.9
20260504174209 76 187 4.0 19.0 0.00 0.00 0.00 52 1004.1
20260504173705 75 229 16.0 19.0 0.00 0.00 0.00 49 1004.1
20260504173202 76 244 22.0 25.0 0.00 0.00 0.00 48 1004.3
20260504172658 76 240 13.0 22.0 0.00 0.00 0.00 50 1004.4
20260504172155 75 237 16.0 21.0 0.00 0.00 0.00 51 1004.5
20260504171651 75 255 17.0 19.0 0.00 0.00 0.00 50 1004.5
20260504171149 76 240 16.0 18.0 0.00 0.00 0.00 52 1004.4
20260504170645 74 226 14.0 21.0 0.00 0.00 0.00 51 1004.7
20260504170143 75 233 12.0 18.0 0.00 0.00 0.00 53 1004.5
20260504151028 71 243 19.0 23.0 0.00 0.00 0.00 55 1005.3
20260504150525 71 263 18.0 21.0 0.00 0.00 0.00 59 1005.3
20260504140950 67 245 11.0 11.0 0.00 0.00 0.00 63 1005.7
20260504140447 66 267 10.0 11.0 0.00 0.00 0.00 65 1005.9
20260504130411 63 148 1.0 1.0 0.00 0.00 0.00 78 1006.3
20260504110259 53 231 1.0 1.0 0.00 0.00 0.00 83 1006.9
20260504100217 53 221 2.0 2.0 0.00 0.00 0.00 82 1007.4
20260504090139 50 259 3.0 3.0 0.00 0.00 0.00 87 1007.8
20260504081610 49 248 2.0 3.0 0.00 0.00 0.00 87 1008.1
20260504081106 51 257 2.0 2.0 0.00 0.00 0.00 84 1007.9
20260504080603 51 251 2.0 2.0 0.00 0.00 0.00 84 1008.1
20260504050416 53 156 1.0 1.0 0.00 0.00 0.00 85 1009.3
20260504045913 55 131 1.0 1.0 0.00 0.00 0.00 79 1009.4
20260504045408 54 21 2.0 3.0 0.00 0.00 0.00 82 1009.4
20260504044904 55 27 3.0 4.0 0.00 0.00 0.00 81 1009.3
20260504044402 56 37 3.0 3.0 0.00 0.00 0.00 77 1009.4
20260504043900 59 32 0.0 0.0 0.00 0.00 0.00 73 1009.5
20260504043356 60 290 0.0 0.0 0.00 0.00 0.00 67 1009.5
20260504042854 60 290 0.0 0.0 0.00 0.00 0.00 67 1009.7
20260504042350 60 292 0.0 0.0 0.00 0.00 0.00 67 1009.9
20260504041846 60 306 0.0 0.0 0.00 0.00 0.00 68 1009.7
20260504041343 60 304 0.0 0.0 0.00 0.00 0.00 68 1009.8
20260504040839 60 264 0.0 0.0 0.00 0.00 0.00 68 1009.8
20260504040337 60 269 2.0 2.0 0.00 0.00 0.00 68 1009.7
20260504035832 60 272 2.0 3.0 0.00 0.00 0.00 69 1009.8
20260504035330 60 282 3.0 3.0 0.00 0.00 0.00 68 1009.9
20260504034827 59 284 1.0 2.0 0.00 0.00 0.00 69 1009.8
20260504034325 58 306 2.0 3.0 0.00 0.00 0.00 74 1010.1
20260504033821 57 239 2.0 2.0 0.00 0.00 0.00 70 1010.1
20260504033319 58 284 1.0 3.0 0.00 0.00 0.00 75 1010.3
20260504032815 59 269 2.0 3.0 0.00 0.00 0.00 73 1010.2
20260504032313 58 260 3.0 3.0 0.00 0.00 0.00 73 1010.4
20260504031809 60 253 3.0 3.0 0.00 0.00 0.00 70 1010.3
20260504031307 59 250 3.0 4.0 0.00 0.00 0.00 69 1010.3
20260504030803 59 240 4.0 4.0 0.00 0.00 0.00 70 1010.5
20260504030300 58 257 5.0 6.0 0.00 0.00 0.00 71 1010.5
20260504025756 58 259 5.0 6.0 0.00 0.00 0.00 72 1010.5
20260504025254 60 277 3.0 4.0 0.00 0.00 0.00 69 1010.5
20260504024750 60 254 4.0 4.0 0.00 0.00 0.00 68 1010.5
20260504024247 62 239 4.0 6.0 0.00 0.00 0.00 64 1010.4
20260504023743 62 231 4.0 6.0 0.00 0.00 0.00 61 1010.3
20260504023240 64 239 4.0 4.0 0.00 0.00 0.00 60 1010.3
20260504022735 63 232 4.0 4.0 0.00 0.00 0.00 61 1010.5
20260504022232 64 242 4.0 4.0 0.00 0.00 0.00 59 1010.3
20260504021729 64 228 5.0 6.0 0.00 0.00 0.00 60 1010.3
20260504021227 64 237 5.0 6.0 0.00 0.00 0.00 59 1010.1
20260504020723 63 219 3.0 3.0 0.00 0.00 0.00 61 1010.3
20260504020220 62 246 4.0 4.0 0.00 0.00 0.00 63 1010.4
20260504015716 62 241 5.0 6.0 0.00 0.00 0.00 65 1010.4
20260504015212 61 242 4.0 4.0 0.00 0.00 0.00 68 1010.5
20260504014708 61 246 4.0 4.0 0.00 0.00 0.00 70 1010.5
20260504014205 61 257 2.0 3.0 0.00 0.00 0.00 71 1010.3
20260504013703 61 276 2.0 2.0 0.00 0.00 0.00 72 1010.1
20260504013159 61 274 2.0 3.0 0.00 0.00 0.00 73 1010.3
20260504012656 64 240 3.0 4.0 0.00 0.00 0.00 63 1010.1
20260504012154 63 242 4.0 4.0 0.00 0.00 0.00 62 1010.3
20260504011651 63 245 4.0 4.0 0.00 0.00 0.00 63 1010.1
20260504011147 62 244 4.0 4.0 0.00 0.00 0.00 66 1010.1
20260504010643 63 258 4.0 4.0 0.00 0.00 0.00 65 1010.1
20260504010139 64 249 4.0 4.0 0.00 0.00 0.00 64 1010.2
20260504005636 64 262 4.0 4.0 0.00 0.00 0.00 66 1010.2
20260504005128 65 254 5.0 6.0 0.00 0.00 0.00 62 1010.3
20260504004626 66 266 4.0 4.0 0.00 0.00 0.00 59 1010.2
20260504004122 66 268 4.0 4.0 0.00 0.00 0.00 61 1010.1
20260504003619 66 260 4.0 4.0 0.00 0.00 0.00 60 1010.0
20260504003110 66 265 4.0 6.0 0.00 0.00 0.00 60 1010.2
20260504002607 67 264 4.0 4.0 0.00 0.00 0.00 59 1010.0
20260504002105 67 275 3.0 4.0 0.00 0.00 0.00 60 1010.0
20260504001602 67 268 6.0 6.0 0.00 0.00 0.00 57 1010.1
20260504001058 68 264 6.0 7.0 0.00 0.00 0.00 55 1010.2
20260504000555 68 283 6.0 8.0 0.00 0.00 0.00 55 1010.1
20260504000053 68 268 9.0 9.0 0.00 0.00 0.00 53 1010.1
20260503235551 69 255 7.0 10.0 0.00 0.00 0.00 53 1010.2
20260503235047 69 262 8.0 8.0 0.00 0.00 0.00 54 1010.2
20260503234545 69 275 11.0 13.0 0.00 0.00 0.00 51 1010.4
20260503234043 69 271 10.0 13.0 0.00 0.00 0.00 52 1010.3
20260503233539 69 264 9.0 13.0 0.00 0.00 0.00 52 1010.3
20260503233035 70 264 9.0 10.0 0.00 0.00 0.00 51 1010.2
20260503232533 71 273 10.0 13.0 0.00 0.00 0.00 50 1010.2
20260503232030 71 288 9.0 10.0 0.00 0.00 0.00 49 1009.9
20260503231528 70 269 10.0 13.0 0.00 0.00 0.00 50 1010.1
20260503231024 70 266 10.0 13.0 0.00 0.00 0.00 51 1010.1
20260503230521 70 261 8.0 10.0 0.00 0.00 0.00 52 1010.1
20260503230018 69 275 9.0 11.0 0.00 0.00 0.00 52 1010.5
20260503225515 69 297 9.0 11.0 0.00 0.00 0.00 53 1010.4
20260503225010 69 281 11.0 11.0 0.00 0.00 0.00 52 1010.5
20260503224508 69 269 14.0 16.0 0.00 0.00 0.00 52 1010.3
20260503224005 70 267 12.0 14.0 0.00 0.00 0.00 52 1010.3
20260503223502 69 260 10.0 11.0 0.00 0.00 0.00 52 1010.0
20260503222957 69 266 11.0 14.0 0.00 0.00 0.00 51 1010.5
20260503222456 69 266 11.0 14.0 0.00 0.00 0.00 51 1010.5
20260503221949 69 260 15.0 21.0 0.00 0.00 0.00 50 1010.7
20260503221447 70 273 16.0 22.0 0.00 0.00 0.00 49 1010.3
20260503220944 70 264 16.0 22.0 0.00 0.00 0.00 48 1010.2
20260503220439 70 259 21.0 23.0 0.00 0.00 0.00 48 1010.1
20260503215937 71 269 18.0 21.0 0.00 0.00 0.00 48 1010.2
20260503215434 71 270 15.0 24.0 0.00 0.00 0.00 49 1010.2
20260503214931 71 259 21.0 24.0 0.00 0.00 0.00 48 1010.2
20260503214429 70 266 22.0 25.0 0.00 0.00 0.00 48 1010.3
20260503213926 70 273 20.0 25.0 0.00 0.00 0.00 48 1010.3
20260503213424 70 248 23.0 27.0 0.00 0.00 0.00 47 1010.3
20260503212920 70 249 18.0 24.0 0.00 0.00 0.00 49 1010.4
20260503212418 70 279 25.0 35.0 0.00 0.00 0.00 48 1010.4
20260503211915 70 271 23.0 35.0 0.00 0.00 0.00 49 1010.4
20260503211412 70 283 21.0 32.0 0.00 0.00 0.00 49 1010.5
20260503210907 70 251 26.0 31.0 0.00 0.00 0.00 48 1010.5
20260503210404 70 265 25.0 30.0 0.00 0.00 0.00 48 1010.1
20260503205858 71 245 26.0 32.0 0.00 0.00 0.00 47 1010.2
20260503205355 71 262 28.0 31.0 0.00 0.00 0.00 47 1010.2
20260503204852 71 268 27.0 30.0 0.00 0.00 0.00 47 1010.6